Location: Göttingen
(51.5413°N, 9.9158°E)
Time: 06:21:23
(UTC+02:00)

EO-88 - Pass Details

Date: 01 July 2022
Orbit: 454 x 462 km, 97.3° (Epoch: 07 August)

Event Time Altitude Azimuth Distance (km) Brightness Sun altitude
Exits shadow 23:54:53 - 221° (SW) 2,212 ? -12.9°
Reaches altitude 10° 23:57:09 10° 246° (WSW) 1,629 ? -13.0°
Maximum altitude 23:58:38 12° 272° (W) 1,497 ? -13.1°
Drops below altitude 10° 00:00:06 10° 297° (WNW) 1,630 ? -13.1°
Sets 00:03:17 0° 329° (NNW) 2,516 ? -13.3°
